CAPE
1205 919 1214 1270 1228 1213 1262 1198 1111 957 851 758 536 393 495 522 551 742 980 1329 1483 1480 1573 1662 1653 1570 1477 1422 1027 561 598 626 837 943 891 915 1085 1072 893 1172 1084 1180 851
1589 1046 1265 1193 1243 1262 1203 1080 961 916 932 841 628 471 550 521 503 566 703 1115 1421 1610 1696 1537 1396 1430 1418 1476 1055 467 484 748 940 972 928 808 1063 1132 1179 1317 1054 1193 973
1690 1104 1245 1175 1183 1318 1284 1105 1036 1043 1060 970 803 609 627 553 556 647 704 1079 1346 1479 1510 1553 1473 1383 1366 1285 967 490 349 838 1014 997 1057 794 1149 1190 1187 1278 990 1011 1125
1888 1400 1156 1178 1177 1249 1343 1347 1193 1226 1235 1135 1031 826 721 658 685 825 897 908 1080 1411 1515 1441 1374 1426 1446 1241 940 622 524 909 1033 1085 1249 908 1119 1097 1279 1173 918 989 1043
2368 1790 1327 1203 1177 1179 1205 1344 1409 1361 1323 1338 1273 1130 919 796 875 1023 1077 1156 1149 1966 1988 1624 1661 1832 1649 1356 1079 840 828 890 1021 1038 811 880 738 958 1163 1154 975 943 1045
2169 2195 1725 1311 1249 1260 1189 1254 1387 1486 1462 1455 1496 1444 1083 956 1032 1082 1103 1159 1371 1998 1879 2149 2079 1790 1674 1579 1377 1067 885 819 1005 922 587 268 96 956 1136 891 884 915 892
2355 2323 1987 1630 1088 1141 1245 1255 1343 1490 1593 1578 1642 1616 1354 1144 1119 1100 1126 1165 1263 1870 2054 2017 1791 1630 1592 1381 1305 1150 937 863 989 698 518 55 0 0 311 846 853 959 944
1904 2236 1957 1710 1456 1168 1170 1217 1346 1533 1689 1708 1656 1660 1595 1331 1183 1167 1177 1238 1359 1898 2146 2003 1759 1654 1485 1235 1150 1185 1055 897 954 747 465 240 3 43 450 771 988 1073 1010
2038 2379 1986 1813 1666 1485 1196 1135 1301 1580 1760 1763 1670 1621 1674 1508 1341 1293 1271 1309 1420 1682 1879 1988 1863 1617 1265 959 998 1088 1088 997 972 597 603 345 131 151 699 907 1013 892 793
2216 2187 2300 2105 1901 1606 1324 1146 1192 1410 1675 1784 1770 1757 1824 1792 1667 1554 1417 1399 1387 1467 1534 2020 1798 1581 1400 989 872 1007 1056 1034 986 828 680 591 192 746 739 692 916 756 702
1955 2241 2609 2516 2038 1756 1402 1185 1126 1281 1467 1732 1920 1954 1953 1995 1935 1837 1685 1468 1411 1377 1433 1862 1624 1542 1444 1165 897 917 979 945 930 842 579 653 505 77 860 823 1023 847 720
1252 1993 1873 2371 2272 1912 1726 1314 1005 1051 1158 1355 1612 1786 1953 1985 1942 1956 1823 1579 1398 1391 1597 1727 1636 1485 1363 1127 914 855 823 887 923 804 749 646 512 634 981 848 903 776 687
329 1998 2037 2039 2288 2050 2307 1883 1363 928 934 1050 1200 1393 1636 1871 2024 1952 1841 1701 1566 1558 1650 1676 1607 1465 1291 1144 1017 853 769 803 858 817 804 739 710 641 525 444 617 638 653
0 710 2313 2125 1993 1912 1661 2305 2005 1417 978 936 1007 1297 1241 1404 1762 2187 2038 1847 1613 1702 1584 1500 1416 1400 1246 1226 1177 1062 1079 973 909 842 769 679 675 631 411 316 444 322 254
0 0 42 1152 1186 1515 1717 1843 2446 2133 1774 1453 1210 1318 1577 1406 1400 1763 2078 2065 1939 1820 1662 1569 1453 1353 1176 1177 1213 1080 1183 1029 1087 933 798 639 516 578 526 453 401 406 301
0 0 0 0 0 0 154 956 1485 1716 1921 2056 1969 1692 1771 1837 1676 1672 1907 1902 2029 1983 1789 1617 1514 1466 1438 1341 1225 1211 1163 1037 1022 884 572 378 307 254 185 230 611 622 583
0 0 0 0 0 0 0 0 0 242 1352 1314 1579 1826 1980 1929 2079 1883 1792 1797 1878 1922 1831 1595 1388 1403 1573 1487 1378 1204 1092 1026 945 869 491 223 97 30 1 30 433 503 428
0 0 0 0 0 0 0 0 0 0 0 0 1054 1304 1443 1768 1941 2231 1865 1776 1488 1724 1644 1633 1432 1366 1394 1415 1348 1236 1143 1038 991 883 652 342 82 12 0 0 296 341 156
0 0 0 0 0 0 0 0 0 0 0 0 0 325 1405 1478 1658 1698 1897 2036 1738 1510 1525 1502 1343 1275 1373 1341 1220 1176 1135 1085 995 899 686 413 247 146 35 25 0 113 53
0 0 0 0 0 0 0 0 0 0 0 0 0 0 59 1480 1645 1492 1424 1671 1812 1693 1485 1534 1451 1322 1291 1354 1257 1130 897 923 964 854 669 512 341 151 36 0 0 0 40
0 0 0 0 0 0 0 0 0 0 0 0 0 0 0 38 1206 1612 1645 1493 1409 1501 1523 1347 1450 1518 1321 1304 1155 962 708 764 778 723 644 545 380 127 6 0 0 0 0
0 0 0 0 0 0 0 0 0 0 0 0 0 0 0 0 0 742 1556 1615 1682 1393 1352 1218 1090 1158 1206 1274 1100 784 681 540 546 691 539 459 298 69 3 0 0 0 0
0 0 0 0 0 0 0 0 0 0 0 0 0 0 0 0 0 0 555 1424 1709 1527 1250 1058 999 695 593 929 693 545 404 296 177 154 398 296 206 35 0 0 0 0 1
0 0 0 0 0 0 0 0 0 0 0 0 0 0 0 0 0 0 4 786 1149 1448 1118 823 437 17 0 9 437 509 155 49 58 25 94 294 199 27 9 0 0 0 1
0 0 0 0 0 0 0 0 0 0 1 1 1 1 0 0 0 0 0 31 708 957 902 627 162 0 25 273 0 167 456 218 114 41 7 123 170 50 4 0 0 0 0
0 0 0 0 0 0 0 0 0 1 1 3 2 4 3 1 0 0 0 0 521 596 674 646 449 210 326 293 257 537 481 431 476 279 90 81 86 41 2 1 1 0 0
CIN
-334 -459 -450 -399 -391 -379 -368 -337 -314 -308 -302 -289 -309 -363 -281 -248 -231 -165 -132 -102 -75 -58 -43 -29 -19 -14 -13 -11 -31 -80 -69 -64 -56 -48 -47 -40 -34 -35 -41 -21 -26 -12 -31
-292 -446 -452 -387 -380 -358 -374 -365 -336 -325 -323 -298 -282 -312 -264 -255 -245 -219 -163 -123 -95 -61 -38 -38 -34 -24 -18 -18 -39 -113 -103 -70 -57 -53 -54 -55 -35 -22 -10 -3 -12 -2 -12
-227 -388 -432 -395 -384 -370 -356 -373 -355 -321 -307 -301 -292 -307 -269 -256 -233 -204 -172 -123 -96 -75 -62 -41 -33 -29 -29 -38 -58 -116 -139 -61 -49 -49 -46 -51 -23 -16 -11 -9 -27 -18 -6
-207 -317 -378 -404 -384 -371 -343 -326 -326 -297 -291 -292 -290 -283 -270 -245 -214 -168 -142 -133 -108 -81 -66 -65 -59 -45 -34 -46 -66 -107 -115 -58 -40 -39 -15 -21 -20 -23 -6 -10 -21 -13 -11
-158 -256 -308 -354 -365 -368 -343 -313 -282 -274 -270 -275 -264 -257 -260 -240 -206 -169 -140 -125 -105 -40 -33 -50 -43 -24 -31 -47 -69 -88 -80 -63 -36 -38 -41 -18 -27 -24 -13 -15 -17 -15 -14
-106 -201 -246 -322 -347 -342 -318 -285 -268 -252 -255 -240 -241 -220 -233 -225 -195 -184 -154 -118 -89 -35 -32 -12 -9 -24 -32 -37 -49 -71 -82 -73 -44 -38 -41 -71 -170 -56 -8 -25 -22 -20 -26
-102 -146 -230 -266 -349 -346 -316 -278 -249 -235 -220 -220 -200 -190 -205 -200 -181 -174 -151 -126 -101 -42 -23 -21 -29 -34 -32 -42 -48 -51 -71 -76 -50 -34 -35 -180 -0 -0 -126 -12 -23 -10 -28
-120 -134 -193 -258 -274 -310 -299 -285 -252 -212 -189 -188 -197 -186 -172 -173 -168 -153 -145 -123 -93 -45 -23 -22 -33 -35 -46 -70 -70 -55 -55 -70 -59 -38 -54 -79 -114 -169 -84 -9 -17 -11 -11
-117 -113 -149 -209 -247 -267 -292 -285 -252 -195 -165 -163 -174 -168 -151 -153 -153 -139 -138 -123 -99 -59 -39 -26 -26 -36 -59 -86 -88 -83 -69 -54 -59 -43 -33 -68 -126 -123 -15 -18 -19 -16 -18
-72 -99 -113 -144 -178 -231 -289 -295 -270 -213 -167 -152 -149 -145 -125 -117 -116 -118 -120 -118 -106 -82 -59 -20 -23 -31 -41 -74 -94 -83 -82 -78 -68 -50 -30 -59 -74 -40 -5 -16 -30 -27 -17
-50 -64 -89 -80 -119 -176 -250 -279 -258 -217 -181 -142 -115 -109 -105 -89 -91 -96 -112 -125 -113 -104 -78 -32 -34 -30 -36 -46 -85 -87 -80 -95 -90 -63 -51 -45 -51 -149 -9 -22 -24 -38 -36
-53 -64 -67 -60 -61 -99 -136 -214 -269 -246 -221 -193 -155 -128 -106 -97 -102 -88 -96 -106 -110 -94 -55 -36 -29 -28 -29 -55 -87 -103 -103 -97 -82 -65 -53 -39 -39 -37 -17 -17 -23 -31 -22
-30 -39 -66 -62 -47 -42 -18 -74 -162 -242 -243 -212 -192 -172 -134 -99 -84 -85 -103 -103 -102 -84 -59 -59 -54 -53 -59 -69 -78 -96 -103 -88 -76 -60 -53 -27 -15 -20 -26 -36 -25 -19 -15
-0 -37 -35 -30 -28 -29 -29 -20 -60 -125 -183 -196 -194 -150 -153 -132 -91 -46 -70 -91 -108 -83 -90 -90 -100 -83 -85 -66 -70 -63 -54 -56 -79 -54 -45 -48 -31 -25 -33 -42 -32 -25 -15
-0 -0 -164 -116 -104 -20 -15 -17 -7 -14 -52 -96 -110 -113 -108 -122 -113 -74 -50 -61 -72 -73 -88 -95 -108 -101 -100 -87 -52 -83 -31 -33 -27 -38 -48 -31 -52 -37 -34 -33 -29 -16 -15
-0 -0 -0 -0 -0 -0 -51 -59 -14 -15 -10 -10 -21 -55 -50 -65 -72 -61 -41 -43 -55 -70 -87 -83 -108 -103 -88 -76 -72 -48 -33 -15 -17 -21 -44 -65 -66 -68 -68 -65 -12 -9 -13
-0 -0 -0 -0 -0 -0 -0 -0 -15 -161 -20 -18 -14 -8 -14 -27 -27 -34 -38 -32 -52 -60 -71 -76 -88 -94 -67 -70 -65 -50 -32 -15 -15 -20 -57 -77 -130 -146 -9 -112 -31 -7 -11
-0 -0 -0 -0 -0 -0 -0 -0 -0 -0 -0 -0 -54 -19 -16 -10 -13 -14 -27 -21 -48 -44 -60 -62 -68 -69 -57 -50 -70 -69 -41 -21 -16 -15 -26 -47 -133 -133 -0 -0 -45 -22 -15
-0 -0 -0 -0 -0 -0 -0 -0 -0 -0 -0 -0 -0 -154 -12 -18 -21 -20 -15 -23 -30 -37 -34 -55 -87 -58 -56 -58 -68 -59 -47 -28 -16 -15 -17 -29 -46 -63 -92 -69 -0 -43 -36
-0 -0 -0 -0 -0 -0 -0 -0 -0 -0 -0 -0 -0 -0 -59 -9 -20 -28 -37 -24 -29 -32 -27 -37 -50 -70 -66 -65 -44 -32 -33 -35 -32 -34 -25 -26 -30 -67 -73 -0 -0 -0 -43
-0 -0 -0 -0 -0 -0 -0 -0 -0 -0 -0 -0 -0 -0 -0 -102 -6 -31 -20 -33 -50 -30 -37 -25 -26 -38 -33 -30 -14 -12 -65 -56 -47 -52 -36 -37 -54 -79 -29 -0 -0 -0 -0
-0 -0 -0 -0 -0 -0 -0 -0 -0 -0 -0 -0 -0 -0 -0 -0 -0 -51 -20 -12 -18 -32 -30 -39 -16 -25 -19 -24 -11 -27 -11 -49 -76 -71 -67 -56 -66 -106 -38 -0 -0 -0 -0
-0 -0 -0 -0 -0 -0 -0 -0 -0 -0 -0 -0 -0 -0 -0 -0 -0 -0 -42 -7 -6 -13 -21 -41 -14 -13 -12 -15 -44 -49 -39 -75 -185 -189 -105 -91 -86 -142 -0 -0 -0 -0 -0
-0 -0 -0 -0 -0 -0 -0 -0 -0 -0 -0 -0 -0 -0 -0 -0 -0 -0 -10 -6 -6 -12 -28 -51 -90 -89 -0 -51 -4 -22 -87 -185 -210 -234 -197 -101 -105 -136 -116 -5 -0 -0 -0
-0 -0 -0 -0 -0 -0 -0 -0 -0 -0 -0 -0 -0 -0 -0 -0 -0 -0 -0 -85 -3 -13 -36 -86 -151 -24 -168 -66 -0 -36 -20 -97 -162 -252 -260 -143 -66 -129 -58 -0 -0 -0 -0
-0 -0 -0 -0 -0 -0 -0 -0 -0 -0 -0 -0 -0 -0 -0 -0 -0 -0 -0 -0 -21 -3 -16 -60 -87 -121 -81 -104 -156 -35 -125 -79 -61 -126 -202 -232 -119 -157 -74 -0 -0 -0 -0
Wind_Speed
12 7 5 5 6 6 7 8 10 10 11 12 12 12 13 14 15 17 17 16 14 12 12 12 13 13 12 12 13 14 15 15 15 15 15 15 14 15 15 15 15 15 15
8 5 3 4 4 3 4 6 7 8 9 10 10 11 11 12 14 15 15 15 13 12 11 10 10 10 10 10 11 12 13 14 15 14 14 14 14 14 14 13 13 12 13
9 5 2 2 2 2 2 3 4 5 7 8 9 10 10 11 12 13 13 13 12 11 10 9 9 9 9 9 10 11 13 13 13 13 14 13 13 13 12 12 12 12 11
8 6 2 2 2 1 1 0 1 3 4 5 6 8 9 10 10 11 12 12 12 11 10 9 8 8 8 8 9 10 11 12 12 13 13 14 12 12 9 10 11 9 8
11 5 2 1 4 3 2 1 1 1 2 3 4 6 7 7 8 9 10 10 10 10 9 8 8 7 7 8 8 9 10 11 11 11 12 12 13 12 10 10 12 9 6
21 5 2 1 5 5 4 3 2 1 0 1 3 4 5 6 7 7 8 8 8 8 8 8 7 7 7 7 8 8 9 10 10 11 12 12 11 10 7 9 10 12 7
17 9 3 2 2 6 6 6 5 3 1 1 1 2 3 5 5 5 5 6 6 6 6 6 6 6 6 7 8 8 8 9 10 11 10 10 11 13 11 9 10 13 7
14 12 8 5 4 6 7 7 6 5 4 2 2 1 2 3 3 3 3 3 4 4 4 5 5 5 5 5 7 8 8 7 9 10 12 11 12 10 7 10 9 9 11
12 10 9 8 7 7 8 8 8 7 5 4 3 2 2 2 2 1 0 2 3 3 3 3 4 4 4 5 6 8 8 7 9 11 8 7 9 8 12 10 9 8 8
12 10 9 8 9 9 10 10 10 9 7 6 5 4 3 3 2 2 2 1 1 1 1 2 3 3 4 5 6 7 8 8 9 11 8 7 7 6 11 10 10 8 7
14 12 11 9 10 10 10 11 11 10 9 8 8 7 6 6 5 4 4 3 3 3 1 1 2 3 3 5 5 7 8 9 10 10 8 3 6 7 10 8 7 5 5
19 15 11 10 11 11 11 11 11 11 11 10 9 9 9 8 7 7 6 5 4 4 3 3 4 3 5 6 6 7 9 9 9 10 9 3 5 6 5 5 4 3 4
20 13 13 11 10 10 12 11 12 13 13 13 12 11 10 10 9 8 8 7 7 6 6 5 5 6 5 6 7 6 7 8 9 9 7 4 2 1 2 2 2 3 3
24 15 11 12 13 13 11 14 14 14 15 15 14 13 13 12 11 11 10 10 9 9 9 8 8 7 7 7 6 7 8 9 8 10 10 4 3 3 2 1 1 3 1
15 13 14 13 15 16 15 14 14 13 14 15 16 16 15 15 14 13 12 12 11 11 10 11 10 9 9 9 8 6 8 9 10 12 11 11 7 3 4 2 2 3 3
15 13 14 15 16 18 16 19 18 19 20 17 17 17 17 17 17 16 15 14 14 13 12 12 12 12 11 10 10 9 9 10 12 13 12 11 7 7 7 5 4 3 4
14 16 19 20 21 21 20 21 21 23 25 23 23 21 19 19 18 16 17 17 16 16 15 14 14 13 13 13 13 12 13 13 13 14 12 11 9 10 11 9 5 4 4
15 18 20 23 25 26 25 25 25 26 26 27 28 23 24 23 23 21 22 22 20 19 19 18 17 17 16 16 15 13 14 15 16 13 12 11 10 11 14 15 7 5 5
15 19 22 24 27 28 29 29 30 30 30 30 31 31 24 25 27 26 26 24 24 23 23 22 22 20 20 18 17 16 15 15 15 14 12 11 10 12 14 15 13 6 6
16 21 24 25 27 29 29 30 30 31 32 32 33 34 33 28 26 26 27 27 28 28 26 26 25 25 25 21 20 20 17 16 15 16 13 12 12 13 16 17 17 10 9
19 21 24 25 27 28 29 30 32 34 36 37 37 39 39 35 29 26 27 28 28 32 31 29 31 29 28 22 22 24 23 20 17 17 15 14 14 13 14 17 16 13 9
18 20 23 25 27 28 29 30 30 32 31 36 39 41 42 42 39 32 30 32 32 31 33 34 34 33 32 23 25 24 31 26 21 18 17 17 14 15 15 17 15 13 12
19 22 24 27 28 29 31 32 33 33 33 33 36 41 44 44 44 42 35 33 33 34 36 35 33 32 35 28 27 25 29 32 23 23 23 19 15 15 17 17 17 14 12
20 22 25 27 29 30 31 32 33 35 38 38 40 42 45 47 47 47 47 38 36 36 37 36 33 40 30 35 32 31 31 25 27 26 23 20 15 16 17 19 18 14 12
21 23 26 28 29 31 31 32 34 37 38 39 41 44 46 46 46 46 47 46 36 36 37 38 37 36 31 29 32 34 31 27 24 24 26 21 20 19 19 18 17 13 11
21 24 27 30 32 33 34 35 36 38 41 41 42 45 44 44 45 44 42 44 37 36 35 35 36 35 34 33 32 30 28 28 26 27 25 22 20 20 19 18 16 12 10
Wind_Direction
350 10 60 100 100 94 84 80 72 63 60 55 57 59 59 59 58 60 62 64 61 60 64 69 74 80 81 70 57 46 45 42 41 38 38 40 44 53 63 63 63 63 69
26 24 38 115 106 95 91 86 77 66 61 59 61 62 63 64 65 66 67 69 67 63 60 61 65 66 67 56 50 47 42 42 42 45 39 38 44 53 66 57 61 63 68
22 36 5 163 143 115 96 78 69 66 64 66 71 71 71 73 70 67 69 71 69 63 59 55 53 52 52 53 49 42 38 44 46 46 41 38 51 62 59 60 72 73 71
15 22 31 227 218 224 243 3 46 53 61 68 72 75 81 82 79 76 75 75 72 66 62 61 62 55 47 46 50 46 48 52 56 62 55 53 61 71 37 65 79 68 61
343 0 10 243 230 221 229 239 291 5 53 66 73 78 83 86 87 83 80 77 74 70 69 67 65 53 41 41 46 47 52 51 59 64 52 58 67 73 43 77 87 77 61
320 338 355 342 246 252 253 263 265 264 118 74 82 89 93 97 99 90 85 81 79 71 65 65 56 39 34 30 28 39 44 48 49 50 40 54 29 51 19 81 83 103 73
324 340 323 327 243 241 255 262 271 267 243 173 111 103 104 108 105 91 85 85 88 71 64 56 46 43 37 19 9 20 34 46 41 30 52 55 64 98 110 105 104 120 96
334 329 321 310 296 243 243 257 262 266 260 234 191 161 133 123 113 97 87 90 91 73 54 42 44 32 25 25 6 5 10 34 30 31 42 73 90 111 119 128 114 115 122
339 334 321 305 299 277 252 251 255 260 257 248 237 224 185 166 162 150 65 114 120 99 84 60 35 22 21 8 358 354 356 7 2 10 48 85 100 110 147 132 127 131 130
326 330 322 307 296 288 269 251 249 252 257 252 246 242 234 231 235 257 272 276 178 157 100 56 18 17 13 358 348 344 343 344 346 347 15 59 98 80 142 133 138 138 131
311 317 317 311 296 291 272 259 250 251 254 256 258 256 259 273 271 275 278 268 237 208 214 302 338 353 349 343 343 338 334 334 335 340 349 91 104 112 144 131 132 137 149
301 303 311 310 301 291 283 261 252 250 253 256 259 260 264 265 269 276 273 264 250 245 255 283 306 316 326 328 331 332 324 327 329 333 344 65 106 125 122 134 147 153 173
310 301 301 308 305 298 282 271 264 256 256 258 256 258 262 264 269 270 275 271 275 257 272 280 295 303 304 310 316 319 321 320 322 324 335 4 27 64 108 110 159 179 177
304 298 307 312 307 301 291 278 269 264 260 259 258 257 260 263 262 268 274 272 267 269 264 270 280 285 291 291 292 305 311 318 317 311 314 316 305 314 343 25 218 222 254
312 327 324 318 315 307 298 280 275 269 266 265 259 254 256 258 257 262 264 266 266 268 265 270 273 276 280 282 284 287 298 309 315 313 313 313 321 328 332 308 274 253 230
307 319 330 331 326 321 314 296 285 279 275 270 268 261 256 259 258 261 263 263 264 264 265 270 269 274 278 283 284 287 291 298 307 310 313 313 309 313 322 316 306 268 227
312 312 312 319 322 319 312 305 301 292 284 280 276 269 263 260 256 255 261 264 262 264 265 267 272 273 273 279 283 287 295 297 303 307 307 308 310 310 316 319 297 264 260
317 318 317 315 313 309 306 303 298 296 292 288 283 276 272 270 266 265 267 266 265 263 261 263 267 268 271 273 280 282 289 295 298 301 306 305 301 307 311 316 303 264 260
318 318 319 317 312 308 304 300 295 292 291 289 286 285 277 273 272 268 267 269 270 270 261 259 262 262 266 268 270 275 283 289 293 297 299 300 299 303 306 310 310 260 259
315 318 316 315 313 309 304 300 297 294 292 291 289 286 287 281 274 271 269 264 265 265 266 261 256 259 262 263 270 273 278 283 291 293 294 294 296 299 302 304 305 293 244
311 315 315 313 314 312 307 303 299 294 292 288 287 285 283 288 281 270 265 266 265 260 261 261 261 260 264 261 270 277 280 281 284 290 294 295 294 298 300 302 302 301 275
313 319 317 315 313 310 310 308 307 303 300 294 289 284 282 281 283 282 268 268 267 264 263 262 259 265 265 251 264 270 272 278 281 284 289 292 293 297 299 298 298 297 289
321 321 318 315 313 310 311 310 308 306 304 302 297 288 282 282 282 284 280 269 268 266 265 266 266 265 248 256 265 267 273 275 283 281 281 286 287 292 296 296 296 295 290
326 326 321 318 315 313 314 313 311 306 301 301 298 294 289 284 284 283 283 275 266 268 267 264 261 271 264 264 271 257 271 282 279 282 285 284 283 287 292 294 294 294 296
327 323 324 323 320 318 318 315 311 308 307 303 301 298 293 291 287 285 282 284 268 267 267 265 263 263 256 252 259 268 262 275 279 283 284 286 285 286 291 290 291 292 286
324 322 323 323 321 319 317 314 313 311 307 305 302 300 299 297 292 288 286 286 276 266 267 265 261 255 252 251 255 249 247 254 265 277 282 281 281 289 291 289 287 285 285